Theta_e
357 357 357 357 358 355 355 356 355 355 355 354 354 353 352 351 345 344 347 338 335 329 329 330 329 328 334 340 341 341 340 340 340 340 341 341 340 340 337 339 341 342 342
358 355 356 357 358 358 356 357 357 356 354 352 353 354 355 352 347 345 346 346 335 330 327 325 324 327 330 327 328 333 335 337 336 339 339 340 339 339 340 337 336 338 341
359 358 356 356 359 359 359 356 355 354 353 354 353 353 353 353 352 349 345 349 343 331 331 327 324 328 331 327 325 322 321 321 323 326 334 338 339 340 340 339 336 335 338
359 359 354 356 359 358 355 354 353 353 352 353 352 351 350 352 353 352 350 347 345 344 333 328 329 327 324 328 326 323 322 322 322 322 324 333 336 338 339 338 339 334 333
357 359 355 358 359 355 356 354 352 351 350 349 347 348 349 350 353 352 351 350 347 345 339 339 332 335 333 332 327 326 326 323 322 321 323 327 331 335 338 338 340 334 337
357 359 357 359 359 353 354 355 357 354 348 343 339 339 344 347 349 351 353 351 349 347 341 342 339 337 335 335 332 330 331 330 329 328 328 326 327 330 333 338 339 337 336
354 358 358 358 359 357 358 357 354 353 347 339 340 333 341 344 347 347 349 351 350 348 344 342 338 337 337 335 333 332 330 329 329 328 328 328 326 329 330 333 336 336 336
355 358 357 359 359 359 360 359 357 351 347 341 340 340 339 342 337 334 337 343 349 347 344 343 340 339 336 334 333 328 323 323 327 327 327 327 327 329 326 331 334 335 336
357 358 359 361 362 359 355 359 357 353 347 343 338 337 342 340 331 335 336 334 339 343 343 340 341 338 336 332 331 327 325 326 326 326 326 326 327 328 327 329 333 334 333
356 356 359 362 363 358 361 357 358 353 348 345 343 338 334 331 333 329 327 330 332 333 335 334 338 336 333 331 326 321 322 322 323 323 324 326 327 326 326 328 332 331 334
357 356 359 362 363 359 360 362 361 355 348 346 345 342 337 335 331 330 327 325 326 331 332 334 331 331 329 326 324 323 320 322 321 320 321 324 326 328 328 328 331 332 332
353 357 357 359 362 357 359 359 361 356 351 349 348 344 338 336 332 328 327 326 327 330 331 329 328 327 326 326 326 324 323 322 319 318 320 323 325 326 328 330 331 332 333
351 353 358 358 357 361 358 359 361 359 353 351 349 344 339 336 330 329 327 326 326 328 332 329 327 327 327 323 323 324 323 322 320 319 320 322 323 326 326 328 330 330 333
348 352 356 355 359 363 360 360 358 359 355 352 350 343 340 337 332 330 327 326 325 326 332 331 326 325 324 325 322 320 324 320 320 321 320 320 323 324 325 326 328 330 332
350 352 353 354 359 363 361 360 358 360 358 353 349 342 340 338 333 331 328 327 325 328 331 332 326 324 323 322 324 325 324 322 317 318 318 318 322 324 326 325 325 327 332
355 355 354 353 354 362 362 361 357 357 360 356 350 344 342 339 333 331 328 326 328 327 331 331 327 323 322 324 322 323 323 320 320 317 319 321 322 323 325 325 325 326 329
354 355 354 353 352 352 361 362 361 358 358 357 352 347 344 338 332 331 325 326 328 329 332 328 324 322 323 325 324 323 321 321 322 319 321 323 324 324 325 325 325 325 325
353 353 355 356 356 354 351 358 362 357 357 357 355 349 346 339 335 331 326 331 331 331 332 329 325 325 324 324 323 323 322 322 323 322 323 324 324 324 325 325 325 325 325
360 359 357 359 360 357 352 354 360 359 359 357 355 350 347 340 336 328 329 329 328 329 329 328 325 324 324 323 324 323 323 323 322 323 323 323 321 321 322 324 324 325 325
363 363 363 362 362 360 356 357 359 360 361 358 355 349 345 340 333 330 329 330 329 328 328 326 324 325 324 324 323 323 324 323 323 323 321 319 319 319 319 320 322 324 325
365 365 365 365 364 362 359 358 358 360 360 358 352 347 343 337 323 329 328 329 329 328 327 326 324 323 324 324 324 323 324 321 321 322 321 319 319 319 320 324 325 324 325
362 363 364 365 365 364 360 356 354 357 357 359 349 345 337 324 318 320 319 323 328 328 327 327 325 324 325 325 324 323 323 322 322 321 321 320 319 319 322 328 332 334 330
351 357 363 364 365 364 363 360 356 353 355 358 352 344 337 331 325 323 318 318 318 324 326 327 326 325 325 325 324 324 323 323 320 321 320 320 320 320 320 330 331 334 334
358 363 362 365 365 361 354 353 353 353 352 354 353 345 339 330 328 326 327 326 324 323 324 324 324 324 324 324 324 324 326 323 323 321 319 318 321 320 320 322 333 334 330
358 363 360 355 355 357 349 350 350 344 344 348 348 344 337 333 327 325 327 326 324 321 321 322 320 318 317 320 321 323 324 324 327 324 321 321 321 322 321 321 323 329 325
358 356 357 354 344 345 344 348 346 344 341 344 342 341 334 333 321 323 328 327 326 323 321 319 318 317 318 316 320 323 323 326 327 328 324 323 325 322 323 322 325 324 325
Wind_Speed
4 4 5 5 5 4 5 7 7 7 3 3 3 3 3 4 4 4 8 6 6 6 8 8 9 9 7 7 5 3 2 1 3 7 12 14 19 24 27 24 18 20 20
3 5 6 6 5 4 5 7 8 4 4 3 2 3 4 5 6 5 5 9 6 7 8 10 9 9 11 9 8 8 8 6 4 3 2 7 12 19 24 31 27 19 18
4 5 7 8 6 5 7 9 7 4 5 5 4 5 6 6 8 8 7 6 5 7 7 7 9 10 10 9 8 7 7 5 4 3 4 2 3 9 19 26 34 28 18
4 6 7 7 6 6 8 8 6 4 5 4 6 8 6 6 8 7 8 8 9 11 9 10 8 10 8 10 9 8 6 7 7 5 3 3 4 1 11 22 29 30 29
3 5 9 7 7 8 7 7 6 6 7 8 9 7 6 8 8 11 10 10 9 9 11 12 10 9 10 10 9 7 5 4 4 6 5 4 1 2 5 17 25 38 36
3 4 6 7 8 9 7 8 6 7 5 7 9 7 6 7 8 9 10 10 10 12 11 13 12 11 10 10 10 7 7 7 5 5 5 4 3 2 6 10 20 28 31
0 2 5 6 7 8 7 7 7 5 7 9 6 7 2 3 5 6 8 8 8 10 11 11 10 9 12 11 9 9 8 6 6 6 5 4 2 1 5 8 13 23 30
1 1 2 4 8 6 7 6 8 9 7 9 9 5 4 4 1 4 7 6 6 6 6 7 11 13 13 10 11 8 3 6 6 6 6 5 3 2 5 7 11 20 29
3 5 4 3 4 7 9 8 9 10 10 7 7 7 4 5 11 1 4 6 6 3 2 7 8 7 9 10 10 7 5 5 4 7 5 4 2 3 5 10 10 16 22
5 4 4 4 4 7 7 9 8 8 10 10 7 7 5 5 4 4 0 3 3 4 5 6 3 8 8 10 4 6 6 4 6 4 5 3 3 4 8 9 11 15 19
4 3 4 5 6 7 7 7 6 8 8 9 10 10 6 4 2 7 6 7 2 6 8 6 2 6 4 5 6 8 7 5 5 4 3 4 4 3 6 11 11 13 16
6 4 4 5 5 6 5 5 4 5 7 7 8 7 7 7 9 6 6 8 6 5 8 5 6 9 6 7 6 5 5 3 3 4 1 1 4 3 4 10 11 14 15
8 5 6 6 9 8 6 3 4 1 1 3 5 6 6 7 6 6 8 9 5 3 6 4 5 5 6 7 4 4 5 1 4 4 1 2 1 1 5 8 9 10 14
10 7 7 9 10 8 7 5 6 4 1 2 4 4 6 6 6 6 8 9 7 1 9 6 6 6 7 4 1 2 4 2 0 2 2 2 2 2 3 5 6 9 12
12 11 9 9 9 8 8 7 7 5 4 4 4 3 5 5 5 6 7 6 7 6 2 6 4 7 7 3 3 4 3 7 3 5 6 3 1 5 4 5 5 9 12
12 11 11 11 10 10 10 10 9 7 6 6 4 3 3 4 4 6 8 7 5 8 3 5 3 11 6 2 2 4 5 5 4 6 5 3 3 3 6 8 6 7 11
15 14 14 13 13 12 12 13 13 9 10 7 7 4 4 2 2 6 8 6 4 5 1 5 6 8 4 2 2 5 3 4 1 7 6 6 3 5 7 9 8 8 9
16 17 17 16 16 15 15 16 15 12 11 8 10 6 4 2 2 3 6 5 5 2 6 8 7 5 4 1 3 4 4 3 3 9 8 2 1 5 8 10 12 11 12
18 18 18 19 17 15 14 15 14 14 13 10 9 8 4 3 2 2 3 3 2 2 2 8 5 4 3 1 3 2 2 2 5 12 7 5 8 10 14 17 18 18 18
19 19 19 21 20 16 15 15 14 13 13 12 9 7 5 4 4 2 1 0 2 3 4 8 5 6 3 2 2 3 1 1 5 15 10 10 8 7 10 16 21 24 24
17 17 18 21 20 18 17 16 14 13 12 12 9 7 6 7 7 6 2 2 3 3 4 6 5 3 5 3 2 4 4 5 7 17 14 16 16 14 7 7 14 22 29
13 15 16 16 19 19 18 17 17 12 12 12 10 9 8 9 8 7 4 4 3 4 4 3 11 3 4 3 3 5 9 7 4 13 16 20 19 21 11 1 12 16 26
19 15 15 15 15 16 18 18 16 13 10 12 10 11 11 10 9 8 6 5 5 7 9 4 6 4 5 4 3 3 6 5 3 13 16 13 23 24 18 3 15 19 21
19 16 14 15 10 12 8 7 9 10 2 14 9 11 12 15 13 11 9 6 8 9 8 7 8 7 5 3 3 4 6 2 4 10 20 7 22 22 25 17 16 22 29
15 11 9 6 3 10 13 11 12 13 2 7 7 9 13 15 17 15 10 9 9 9 11 11 8 6 6 8 5 2 3 5 3 6 17 13 15 13 29 27 20 22 35
13 12 9 7 6 12 19 23 24 11 7 7 3 8 15 16 20 17 11 11 10 11 13 12 9 7 6 7 8 4 1 5 4 5 16 10 12 9 7 29 27 26 33
Wind_Direction
2 350 351 336 318 326 321 316 326 326 310 271 237 225 218 203 153 149 137 152 122 106 91 91 85 90 99 103 111 120 139 180 223 240 238 230 227 225 220 205 220 231 222
18 2 356 350 352 327 331 323 334 312 308 299 227 259 240 233 207 190 179 159 155 138 117 116 115 106 96 95 98 95 93 88 91 100 173 220 223 220 219 211 208 214 226
14 1 1 3 5 346 325 327 329 312 289 296 261 264 266 245 222 216 222 137 186 172 139 129 129 113 111 117 117 107 94 86 78 78 74 60 236 219 208 207 201 199 231
7 3 3 7 5 344 348 344 345 329 331 312 299 288 278 261 233 232 229 217 204 192 177 174 167 148 150 131 128 119 103 84 65 53 52 58 56 140 201 209 198 205 212
0 7 12 18 5 1 7 356 0 345 342 326 297 280 272 263 242 244 236 229 227 205 196 214 183 186 161 156 146 135 109 83 51 36 26 42 76 119 164 199 194 188 198
352 1 13 8 4 15 23 10 348 348 349 342 318 322 282 266 259 258 253 247 241 220 223 209 199 195 189 173 156 144 109 77 52 37 20 23 34 185 184 191 204 199 206
328 12 352 12 1 27 24 9 349 10 8 355 311 329 225 259 268 273 261 274 264 239 228 222 221 220 189 177 150 126 111 82 48 39 24 26 351 95 202 190 199 201 193
302 277 343 1 19 18 28 6 13 356 28 13 351 310 0 153 49 327 318 306 282 264 242 242 240 230 218 201 157 155 111 32 23 35 10 2 339 223 197 198 191 188 195
296 289 295 325 359 359 20 14 15 13 7 19 28 357 339 1 325 50 13 359 341 326 301 267 261 246 202 188 180 201 215 238 355 40 360 343 322 259 213 206 197 200 205
294 268 283 296 305 349 9 16 8 15 6 9 6 22 9 343 348 327 29 59 36 19 354 336 89 174 167 181 134 112 80 275 318 354 14 353 306 259 228 210 205 204 201
297 261 265 285 289 321 360 7 7 21 13 3 4 360 347 328 332 325 328 346 340 48 30 30 95 170 163 157 164 163 169 232 281 318 7 348 311 301 228 221 207 207 205
271 259 255 273 278 286 308 338 348 21 11 1 357 349 341 341 338 330 322 324 340 57 65 47 118 134 141 128 137 157 188 240 292 291 80 7 347 319 224 222 205 202 206
266 265 275 281 291 272 254 284 293 313 41 347 338 339 339 338 331 325 312 333 312 80 110 94 134 144 114 125 126 162 151 149 330 343 43 30 332 71 159 174 170 185 199
270 269 275 284 290 268 234 247 278 294 253 306 307 328 335 338 331 328 323 330 324 243 122 144 156 154 132 146 165 188 213 276 208 308 351 278 236 147 135 176 181 197 195
269 261 268 281 290 261 245 256 269 274 257 278 301 323 330 336 324 323 316 326 329 323 63 141 137 174 173 150 254 292 313 312 299 300 300 265 299 186 177 181 217 197 193
258 265 268 272 274 267 264 259 267 263 246 276 285 275 305 319 318 318 320 320 313 306 318 41 102 165 177 213 301 330 327 328 304 333 336 316 320 223 205 208 194 177 181
246 249 254 262 266 263 263 256 259 267 258 262 264 263 272 286 310 317 322 326 321 295 21 106 123 162 190 234 311 335 336 302 140 342 335 323 283 223 217 211 207 198 185
257 254 254 249 254 254 252 253 256 259 258 248 257 245 257 257 298 330 324 345 20 339 89 125 155 179 218 191 334 336 338 9 9 345 346 341 264 259 244 231 228 219 205
261 258 256 258 253 252 246 246 247 253 253 247 245 248 246 224 263 308 348 334 45 67 132 127 153 190 162 193 321 309 332 23 23 5 358 339 311 288 262 247 241 230 212
267 268 265 261 258 250 244 241 239 242 249 242 229 222 223 202 199 175 16 227 96 129 111 126 130 168 155 113 351 345 271 53 12 19 23 359 344 307 265 250 241 229 215
272 269 268 266 264 258 251 247 247 245 248 244 213 195 200 179 183 175 247 256 166 164 147 133 122 146 153 145 353 357 330 19 336 13 15 16 11 9 344 242 230 214 207
264 262 249 249 256 255 254 247 243 249 253 240 218 183 182 172 171 164 163 189 161 149 131 147 136 181 134 152 74 2 32 3 337 355 4 11 13 11 8 244 195 185 193
274 270 264 248 248 258 257 243 241 231 263 247 223 191 168 162 148 140 125 121 146 146 132 121 114 112 144 88 77 116 86 56 17 10 8 355 25 19 22 68 185 182 179
285 279 268 250 227 229 246 219 148 146 130 273 249 208 182 161 168 155 140 141 124 116 115 118 127 125 120 98 112 118 121 33 343 10 9 349 19 24 42 68 138 161 166
273 273 230 230 195 229 242 238 172 153 196 347 278 228 189 171 177 163 155 154 135 129 135 133 127 136 142 150 149 195 154 130 49 21 10 6 10 35 45 68 104 138 147
267 251 243 242 258 256 246 234 223 194 155 118 250 278 228 183 176 163 167 163 151 152 139 128 115 101 87 114 91 39 33 90 1 22 17 23 25 27 44 52 92 120 136